Time,TemperatureF,DewpointF,PressureIn,WindDirection,WindDirectionDegrees,WindSpeedMPH,WindSpeedGustMPH,Humidity,HourlyPrecipIn,Conditions,Clouds,dailyrainin,SolarRadiationWatts/m^2,SoftwareType,DateUTC
2013-02-13 00:00:00,41.2,31.1,29.91,North,9,0.1,1.0,67,0.00,SCT,,0.00,0.0,WeatherDisplay:10.37,2013-02-13 05:00:00,
2013-02-13 00:02:00,41.2,31.1,29.90,North,5,0.0,0.0,67,0.00,CLR,,0.00,0.0,WeatherDisplay:10.37,2013-02-13 05:02:00,
2013-02-13 00:07:00,41.2,31.1,29.90,North,5,0.0,0.0,67,0.00,CLR,,0.00,0.0,WeatherDisplay:10.37,2013-02-13 05:07:00,
2013-02-13 00:12:00,41.2,31.1,29.90,North,5,0.0,0.0,67,0.00,CLR,,0.00,0.0,WeatherDisplay:10.37,2013-02-13 05:12:00,
2013-02-13 00:17:00,41.2,31.4,29.92,North,5,0.0,1.1,68,0.00,CLR,,0.00,0.0,WeatherDisplay:10.37,2013-02-13 05:17:00,
2013-02-13 00:22:00,41.1,31.3,29.92,North,9,0.0,0.0,68,0.00,CLR,,0.00,0.0,WeatherDisplay:10.37,2013-02-13 05:22:00,
2013-02-13 00:27:00,41.1,31.3,29.92,North,5,0.0,0.0,68,0.00,CLR,,0.00,0.0,WeatherDisplay:10.37,2013-02-13 05:27:00,
2013-02-13 00:32:00,41.1,31.7,29.89,North,5,0.0,0.0,69,0.00,CLR,,0.00,0.0,WeatherDisplay:10.37,2013-02-13 05:32:00,
2013-02-13 00:37:00,41.1,31.7,29.89,North,5,0.0,0.0,69,0.00,CLR,,0.00,0.0,WeatherDisplay:10.37,2013-02-13 05:37:00,
2013-02-13 00:42:00,40.9,31.5,29.89,North,5,0.0,0.0,69,0.00,CLR,,0.00,0.0,WeatherDisplay:10.37,2013-02-13 05:42:00,
2013-02-13 00:47:00,40.9,31.5,29.90,North,5,0.0,0.0,69,0.00,CLR,,0.00,0.0,WeatherDisplay:10.37,2013-02-13 05:47:00,
2013-02-13 00:52:00,40.9,31.5,29.90,North,5,0.0,1.1,69,0.00,CLR,,0.00,0.0,WeatherDisplay:10.37,2013-02-13 05:52:00,
2013-02-13 00:57:00,40.8,31.4,29.90,North,5,0.0,0.0,69,0.00,CLR,,0.00,0.0,WeatherDisplay:10.37,2013-02-13 05:57:00,
2013-02-13 01:02:00,40.8,31.4,29.89,North,5,0.0,0.0,69,0.00,CLR,,0.00,0.0,WeatherDisplay:10.37,2013-02-13 06:02:00,
2013-02-13 01:07:00,40.8,31.8,29.89,North,5,0.0,0.0,70,0.00,CLR,,0.00,0.0,WeatherDisplay:10.37,2013-02-13 06:07:00,
2013-02-13 01:12:00,40.6,31.9,29.89,North,5,0.1,1.1,71,0.00,CLR,,0.00,0.0,WeatherDisplay:10.37,2013-02-13 06:12:00,
2013-02-13 01:17:00,40.6,31.9,29.90,North,5,0.2,1.1,71,0.00,CLR,,0.00,0.0,WeatherDisplay:10.37,2013-02-13 06:17:00,
2013-02-13 01:22:00,40.5,31.8,29.90,North,5,0.1,1.1,71,0.00,CLR,,0.00,0.0,WeatherDisplay:10.37,2013-02-13 06:22:00,
2013-02-13 01:27:00,40.3,31.6,29.90,North,5,0.1,1.1,71,0.00,CLR,,0.00,0.0,WeatherDisplay:10.37,2013-02-13 06:27:00,
2013-02-13 01:32:00,40.2,31.5,29.90,North,5,0.5,3.5,71,0.00,CLR,,0.00,0.0,WeatherDisplay:10.37,2013-02-13 06:32:00,
2013-02-13 01:37:00,40.1,31.4,29.90,North,5,0.7,3.5,71,0.00,CLR,,0.00,0.0,WeatherDisplay:10.37,2013-02-13 06:37:00,
2013-02-13 01:42:00,40.1,31.8,29.90,North,5,0.8,4.6,72,0.00,CLR,,0.00,0.0,WeatherDisplay:10.37,2013-02-13 06:42:00,
2013-02-13 01:47:00,39.9,31.6,29.90,North,5,0.9,3.5,72,0.00,CLR,,0.00,0.0,WeatherDisplay:10.37,2013-02-13 06:47:00,
2013-02-13 01:52:00,39.9,31.6,29.90,North,5,1.2,3.5,72,0.00,CLR,,0.00,0.0,WeatherDisplay:10.37,2013-02-13 06:52:00,
2013-02-13 01:57:00,39.8,31.8,29.90,North,5,1.6,7.0,73,0.00,CLR,,0.00,0.0,WeatherDisplay:10.37,2013-02-13 06:57:00,
2013-02-13 02:02:00,39.8,31.8,29.89,North,5,1.6,3.5,73,0.00,CLR,,0.00,0.0,WeatherDisplay:10.37,2013-02-13 07:02:00,
2013-02-13 02:07:00,39.6,32.0,29.89,North,5,1.5,4.6,74,0.00,CLR,,0.00,0.0,WeatherDisplay:10.37,2013-02-13 07:07:00,
2013-02-13 02:12:00,39.6,32.0,29.89,North,5,0.1,3.5,74,0.00,CLR,,0.00,0.0,WeatherDisplay:10.37,2013-02-13 07:12:00,
2013-02-13 02:17:00,39.5,31.6,29.89,North,5,0.1,2.3,73,0.00,CLR,,0.00,0.0,WeatherDisplay:10.37,2013-02-13 07:17:00,
2013-02-13 02:22:00,39.5,31.6,29.89,North,5,1.5,4.6,73,0.00,CLR,,0.00,0.0,WeatherDisplay:10.37,2013-02-13 07:22:00,
2013-02-13 02:27:00,39.3,31.4,29.89,North,5,0.9,4.6,73,0.00,CLR,,0.00,0.0,WeatherDisplay:10.37,2013-02-13 07:27:00,
2013-02-13 02:32:00,39.2,30.9,29.87,North,5,1.5,3.5,72,0.00,CLR,,0.00,0.0,WeatherDisplay:10.37,2013-02-13 07:32:00,
2013-02-13 02:37:00,39.1,30.8,29.87,North,5,1.5,6.9,72,0.00,CLR,,0.00,0.0,WeatherDisplay:10.37,2013-02-13 07:37:00,
2013-02-13 02:42:00,39.1,30.8,29.87,North,5,3.1,4.6,72,0.00,CLR,,0.00,0.0,WeatherDisplay:10.37,2013-02-13 07:42:00,
2013-02-13 02:47:00,38.9,30.3,29.87,North,5,1.2,3.5,71,0.00,CLR,,0.00,0.0,WeatherDisplay:10.37,2013-02-13 07:47:00,
2013-02-13 02:52:00,38.8,30.2,29.87,North,5,1.0,3.5,71,0.00,CLR,,0.00,0.0,WeatherDisplay:10.37,2013-02-13 07:52:00,
2013-02-13 02:57:00,38.8,30.2,29.87,North,5,2.2,4.6,71,0.00,CLR,,0.00,0.0,WeatherDisplay:10.37,2013-02-13 07:57:00,
2013-02-13 03:02:00,38.6,30.0,29.87,North,5,0.7,3.5,71,0.00,CLR,,0.00,0.0,WeatherDisplay:10.37,2013-02-13 08:02:00,
2013-02-13 03:07:00,38.5,29.9,29.87,North,5,0.2,3.5,71,0.00,CLR,,0.00,0.0,WeatherDisplay:10.37,2013-02-13 08:07:00,
2013-02-13 03:12:00,38.5,29.9,29.87,North,5,0.0,1.1,71,0.00,CLR,,0.00,0.0,WeatherDisplay:10.37,2013-02-13 08:12:00,
2013-02-13 03:17:00,38.3,29.7,29.87,North,5,0.6,3.5,71,0.00,CLR,,0.00,0.0,WeatherDisplay:10.37,2013-02-13 08:17:00,
2013-02-13 03:22:00,38.3,29.7,29.86,North,5,0.0,1.1,71,0.00,CLR,,0.00,0.0,WeatherDisplay:10.37,2013-02-13 08:22:00,
2013-02-13 03:27:00,38.3,29.7,29.86,North,5,0.0,2.3,71,0.00,CLR,,0.00,0.0,WeatherDisplay:10.37,2013-02-13 08:27:00,
2013-02-13 03:32:00,38.2,29.6,29.86,North,5,2.5,3.5,71,0.00,CLR,,0.00,0.0,WeatherDisplay:10.37,2013-02-13 08:32:00,
2013-02-13 03:37:00,38.0,29.4,29.85,North,5,0.5,3.5,71,0.00,CLR,,0.00,0.0,WeatherDisplay:10.37,2013-02-13 08:37:00,
2013-02-13 03:42:00,38.0,29.4,29.85,North,5,0.1,3.5,71,0.00,CLR,,0.00,0.0,WeatherDisplay:10.37,2013-02-13 08:42:00,
2013-02-13 03:47:00,37.9,29.7,29.86,North,5,0.1,3.5,72,0.00,CLR,,0.00,0.0,WeatherDisplay:10.37,2013-02-13 08:47:00,
2013-02-13 03:52:00,37.9,29.7,29.86,North,5,2.7,5.8,72,0.00,CLR,,0.00,0.0,WeatherDisplay:10.37,2013-02-13 08:52:00,
2013-02-13 03:57:00,37.8,29.6,29.86,North,5,1.3,3.5,72,0.00,CLR,,0.00,0.0,WeatherDisplay:10.37,2013-02-13 08:57:00,
2013-02-13 04:02:00,37.8,29.6,29.85,North,5,0.7,3.5,72,0.00,CLR,,0.00,0.0,WeatherDisplay:10.37,2013-02-13 09:02:00,
2013-02-13 04:07:00,37.8,29.6,29.85,North,5,0.0,2.3,72,0.00,CLR,,0.00,0.0,WeatherDisplay:10.37,2013-02-13 09:07:00,
2013-02-13 04:12:00,37.8,29.6,29.85,North,5,0.1,3.5,72,0.00,CLR,,0.00,0.0,WeatherDisplay:10.37,2013-02-13 09:12:00,
2013-02-13 04:17:00,37.8,29.6,29.85,North,5,0.7,2.3,72,0.00,CLR,,0.00,0.0,WeatherDisplay:10.37,2013-02-13 09:17:00,
2013-02-13 04:22:00,37.8,29.6,29.86,North,5,1.5,3.5,72,0.00,CLR,,0.00,0.0,WeatherDisplay:10.37,2013-02-13 09:22:00,
2013-02-13 04:27:00,37.8,29.6,29.86,North,5,1.6,3.5,72,0.00,CLR,,0.00,0.0,WeatherDisplay:10.37,2013-02-13 09:27:00,
2013-02-13 04:32:00,37.8,29.6,29.85,North,5,1.7,3.5,72,0.00,CLR,,0.00,0.0,WeatherDisplay:10.37,2013-02-13 09:32:00,
2013-02-13 04:37:00,37.8,29.6,29.85,North,5,0.3,2.0,72,0.00,CLR,,0.00,0.0,WeatherDisplay:10.37,2013-02-13 09:37:00,
2013-02-13 04:42:00,37.8,29.2,29.85,North,5,1.7,3.5,71,0.00,CLR,,0.00,0.0,WeatherDisplay:10.37,2013-02-13 09:42:00,
2013-02-13 04:47:00,37.8,29.2,29.85,North,5,0.4,2.3,71,0.00,CLR,,0.00,0.0,WeatherDisplay:10.37,2013-02-13 09:47:00,
2013-02-13 04:52:00,37.8,29.2,29.85,North,5,0.0,3.5,71,0.00,CLR,,0.00,0.0,WeatherDisplay:10.37,2013-02-13 09:52:00,
2013-02-13 04:57:00,37.9,29.3,29.85,North,5,0.0,2.3,71,0.00,CLR,,0.00,0.0,WeatherDisplay:10.37,2013-02-13 09:57:00,
2013-02-13 05:02:00,37.9,29.3,29.85,North,5,0.0,3.5,71,0.00,CLR,,0.00,0.0,WeatherDisplay:10.37,2013-02-13 10:02:00,
2013-02-13 05:07:00,37.9,29.3,29.85,North,5,0.0,2.3,71,0.00,CLR,,0.00,0.0,WeatherDisplay:10.37,2013-02-13 10:07:00,
2013-02-13 05:12:00,37.9,29.3,29.85,North,5,1.6,4.0,71,0.00,CLR,,0.00,0.0,WeatherDisplay:10.37,2013-02-13 10:12:00,
2013-02-13 05:17:00,37.9,29.0,29.84,North,5,1.0,4.0,70,0.00,CLR,,0.00,0.0,WeatherDisplay:10.37,2013-02-13 10:17:00,
2013-02-13 05:22:00,37.9,29.0,29.84,North,5,0.8,2.3,70,0.00,CLR,,0.00,0.0,WeatherDisplay:10.37,2013-02-13 10:22:00,
2013-02-13 05:27:00,37.9,29.0,29.84,North,5,2.4,5.8,70,0.00,CLR,,0.00,0.0,WeatherDisplay:10.37,2013-02-13 10:27:00,
2013-02-13 05:32:00,37.9,29.0,29.84,North,5,0.9,4.6,70,0.00,CLR,,0.00,0.0,WeatherDisplay:10.37,2013-02-13 10:32:00,
2013-02-13 05:37:00,38.0,29.1,29.84,North,5,0.1,1.0,70,0.00,CLR,,0.00,0.0,WeatherDisplay:10.37,2013-02-13 10:37:00,
2013-02-13 05:42:00,38.0,29.1,29.84,North,5,0.5,3.5,70,0.00,CLR,,0.00,0.0,WeatherDisplay:10.37,2013-02-13 10:42:00,
2013-02-13 05:47:00,38.0,29.1,29.84,North,5,0.0,0.0,70,0.00,CLR,,0.00,0.0,WeatherDisplay:10.37,2013-02-13 10:47:00,
2013-02-13 05:52:00,38.0,29.1,29.84,North,5,0.1,3.5,70,0.00,CLR,,0.00,0.0,WeatherDisplay:10.37,2013-02-13 10:52:00,
2013-02-13 05:57:00,38.0,29.1,29.84,North,5,0.0,0.0,70,0.00,CLR,,0.00,0.0,WeatherDisplay:10.37,2013-02-13 10:57:00,
2013-02-13 06:02:00,38.0,29.1,29.84,North,5,0.0,0.0,70,0.00,BKN,,0.00,0.0,WeatherDisplay:10.37,2013-02-13 11:02:00,
2013-02-13 06:07:00,38.0,29.1,29.84,North,5,0.2,1.1,70,0.00,BKN,,0.00,0.0,WeatherDisplay:10.37,2013-02-13 11:07:00,
2013-02-13 06:12:00,38.0,29.1,29.84,North,5,0.3,2.3,70,0.00,BKN,,0.00,0.0,WeatherDisplay:10.37,2013-02-13 11:12:00,
2013-02-13 06:17:00,38.0,29.1,29.84,North,5,0.0,2.3,70,0.00,BKN,,0.00,0.0,WeatherDisplay:10.37,2013-02-13 11:17:00,
2013-02-13 06:22:00,37.9,29.0,29.84,North,5,0.2,1.1,70,0.00,BKN,,0.00,0.0,WeatherDisplay:10.37,2013-02-13 11:22:00,
2013-02-13 06:27:00,37.9,29.0,29.84,North,5,0.9,4.0,70,0.00,BKN,,0.00,0.0,WeatherDisplay:10.37,2013-02-13 11:27:00,
2013-02-13 06:32:00,37.9,29.0,29.83,North,5,1.2,3.5,70,0.00,BKN,,0.00,0.0,WeatherDisplay:10.37,2013-02-13 11:32:00,
2013-02-13 06:37:00,37.8,29.2,29.83,North,5,0.7,3.5,71,0.00,BKN,,0.00,0.0,WeatherDisplay:10.37,2013-02-13 11:37:00,
2013-02-13 06:42:00,37.8,29.2,29.83,North,5,0.0,1.1,71,0.00,BKN,,0.00,0.0,WeatherDisplay:10.37,2013-02-13 11:42:00,
2013-02-13 06:47:00,37.6,29.4,29.83,North,5,0.6,3.5,72,0.00,BKN,,0.00,0.0,WeatherDisplay:10.37,2013-02-13 11:47:00,
2013-02-13 06:52:00,37.5,29.3,29.83,North,5,1.9,3.5,72,0.00,BKN,,0.00,0.0,WeatherDisplay:10.37,2013-02-13 11:52:00,
2013-02-13 06:57:00,37.5,29.3,29.83,North,5,0.2,1.1,72,0.00,BKN,,0.00,0.0,WeatherDisplay:10.37,2013-02-13 11:57:00,
2013-02-13 07:02:00,37.3,29.1,29.83,North,5,1.7,4.0,72,0.00,BKN,,0.00,5.0,WeatherDisplay:10.37,2013-02-13 12:02:00,
2013-02-13 07:07:00,37.3,29.1,29.83,North,5,3.4,5.8,72,0.00,BKN,,0.00,9.0,WeatherDisplay:10.37,2013-02-13 12:07:00,
2013-02-13 07:12:00,37.2,29.0,29.83,North,5,0.5,3.5,72,0.00,BKN,,0.00,12.0,WeatherDisplay:10.37,2013-02-13 12:12:00,
2013-02-13 07:17:00,37.0,29.1,29.83,North,5,0.7,5.0,73,0.00,BKN,,0.00,16.0,WeatherDisplay:10.37,2013-02-13 12:17:00,
2013-02-13 07:22:00,37.0,29.1,29.83,North,5,0.0,0.0,73,0.00,BKN,,0.00,21.0,WeatherDisplay:10.37,2013-02-13 12:22:00,
2013-02-13 07:27:00,36.9,29.1,29.83,North,5,1.5,3.5,73,0.00,BKN,,0.00,26.0,WeatherDisplay:10.37,2013-02-13 12:27:00,
2013-02-13 07:32:00,36.9,28.7,29.84,North,5,0.0,1.1,72,0.00,BKN,,0.00,30.0,WeatherDisplay:10.37,2013-02-13 12:32:00,
2013-02-13 07:37:00,36.9,28.7,29.84,North,5,0.1,2.3,72,0.00,BKN,,0.00,33.0,WeatherDisplay:10.37,2013-02-13 12:37:00,
2013-02-13 07:42:00,36.8,29.0,29.84,North,5,2.6,5.8,73,0.00,BKN,,0.00,37.0,WeatherDisplay:10.37,2013-02-13 12:42:00,
2013-02-13 07:47:00,36.8,29.0,29.85,North,5,0.0,1.1,73,0.00,BKN,,0.00,42.0,WeatherDisplay:10.37,2013-02-13 12:47:00,
2013-02-13 07:52:00,36.8,29.0,29.85,North,5,0.2,3.0,73,0.00,BKN,,0.00,44.0,WeatherDisplay:10.37,2013-02-13 12:52:00,
2013-02-13 07:57:00,36.8,28.6,29.85,North,5,0.0,1.1,72,0.00,BKN,,0.00,44.0,WeatherDisplay:10.37,2013-02-13 12:57:00,
2013-02-13 08:02:00,36.9,28.7,29.85,North,360,0.6,2.3,72,0.00,BKN,,0.00,49.0,WeatherDisplay:10.37,2013-02-13 13:02:00,
2013-02-13 08:07:00,36.9,28.7,29.85,North,5,0.2,1.1,72,0.00,BKN,,0.00,60.0,WeatherDisplay:10.37,2013-02-13 13:07:00,
2013-02-13 08:12:00,37.0,28.5,29.85,North,5,2.0,4.6,71,0.00,BKN,,0.00,58.0,WeatherDisplay:10.37,2013-02-13 13:12:00,
2013-02-13 08:17:00,37.0,28.1,29.84,North,5,1.1,3.5,70,0.00,BKN,,0.00,53.0,WeatherDisplay:10.37,2013-02-13 13:17:00,
2013-02-13 08:22:00,37.2,28.7,29.84,North,5,1.0,3.5,71,0.00,BKN,,0.00,58.0,WeatherDisplay:10.37,2013-02-13 13:22:00,
2013-02-13 08:27:00,37.3,28.4,29.84,North,5,1.4,4.6,70,0.00,BKN,,0.00,67.0,WeatherDisplay:10.37,2013-02-13 13:27:00,
2013-02-13 08:32:00,37.5,28.2,29.84,North,5,0.1,3.5,69,0.00,BKN,,0.00,79.0,WeatherDisplay:10.37,2013-02-13 13:32:00,
2013-02-13 08:37:00,37.6,28.3,29.84,North,5,1.8,4.0,69,0.00,BKN,,0.00,83.0,WeatherDisplay:10.37,2013-02-13 13:37:00,
2013-02-13 08:42:00,37.8,28.5,29.84,North,5,0.1,3.5,69,0.00,BKN,,0.00,88.0,WeatherDisplay:10.37,2013-02-13 13:42:00,
2013-02-13 08:47:00,37.8,28.2,29.83,North,5,0.5,3.5,68,0.00,BKN,,0.00,93.0,WeatherDisplay:10.37,2013-02-13 13:47:00,
2013-02-13 08:52:00,37.9,28.3,29.83,North,5,0.8,3.5,68,0.00,BKN,,0.00,72.0,WeatherDisplay:10.37,2013-02-13 13:52:00,
2013-02-13 08:57:00,38.0,28.4,29.83,North,5,0.6,3.0,68,0.00,BKN,,0.00,60.0,WeatherDisplay:10.37,2013-02-13 13:57:00,
2013-02-13 09:02:00,38.0,28.0,29.84,North,5,1.3,3.5,67,0.00,BKN,,0.00,53.0,WeatherDisplay:10.37,2013-02-13 14:02:00,
2013-02-13 09:07:00,38.2,28.2,29.84,North,5,0.7,3.5,67,0.00,BKN,,0.00,76.0,WeatherDisplay:10.37,2013-02-13 14:07:00,
2013-02-13 09:12:00,38.3,28.3,29.84,North,5,2.0,4.6,67,0.00,BKN,,0.00,97.0,WeatherDisplay:10.37,2013-02-13 14:12:00,
2013-02-13 09:17:00,38.5,28.1,29.83,North,5,2.5,5.8,66,0.00,BKN,,0.00,91.0,WeatherDisplay:10.37,2013-02-13 14:17:00,
2013-02-13 09:22:00,38.6,28.2,29.83,North,5,2.7,6.9,66,0.00,BKN,,0.00,120.0,WeatherDisplay:10.37,2013-02-13 14:22:00,
2013-02-13 09:27:00,38.8,28.4,29.83,North,5,0.8,6.9,66,0.00,BKN,,0.00,188.0,WeatherDisplay:10.37,2013-02-13 14:27:00,
2013-02-13 09:32:00,39.1,29.1,29.82,North,5,1.9,3.5,67,0.00,BKN,,0.00,190.0,WeatherDisplay:10.37,2013-02-13 14:32:00,
2013-02-13 09:37:00,39.2,28.8,29.82,North,5,2.0,5.0,66,0.00,BKN,,0.00,192.0,WeatherDisplay:10.37,2013-02-13 14:37:00,
2013-02-13 09:42:00,39.5,28.7,29.82,North,5,0.0,3.5,65,0.00,BKN,,0.00,216.0,WeatherDisplay:10.37,2013-02-13 14:42:00,
2013-02-13 09:47:00,39.8,29.0,29.82,North,5,0.3,2.0,65,0.00,BKN,,0.00,244.0,WeatherDisplay:10.37,2013-02-13 14:47:00,
2013-02-13 09:52:00,40.1,28.9,29.82,North,5,3.4,5.8,64,0.00,BKN,,0.00,214.0,WeatherDisplay:10.37,2013-02-13 14:52:00,
2013-02-13 09:57:00,40.3,29.1,29.82,North,5,0.9,3.5,64,0.00,BKN,,0.00,169.0,WeatherDisplay:10.37,2013-02-13 14:57:00,
2013-02-13 10:02:00,40.6,29.4,29.83,North,5,0.0,0.0,64,0.00,BKN,,0.00,172.0,WeatherDisplay:10.37,2013-02-13 15:02:00,
2013-02-13 10:07:00,40.8,29.2,29.83,North,5,0.6,2.3,63,0.00,BKN,,0.00,156.0,WeatherDisplay:10.37,2013-02-13 15:07:00,
2013-02-13 10:12:00,40.9,28.9,29.83,North,5,1.9,3.5,62,0.00,BKN,,0.00,178.0,WeatherDisplay:10.37,2013-02-13 15:12:00,
2013-02-13 10:17:00,41.2,29.5,29.82,North,5,0.1,1.1,63,0.00,BKN,,0.00,169.0,WeatherDisplay:10.37,2013-02-13 15:17:00,
2013-02-13 10:22:00,41.3,29.3,29.82,North,5,3.0,5.8,62,0.00,BKN,,0.00,171.0,WeatherDisplay:10.37,2013-02-13 15:22:00,
2013-02-13 10:27:00,41.5,29.8,29.82,North,5,0.0,0.0,63,0.00,BKN,,0.00,163.0,WeatherDisplay:10.37,2013-02-13 15:27:00,
2013-02-13 10:32:00,41.6,29.5,29.82,North,5,0.0,1.1,62,0.00,BKN,,0.00,218.0,WeatherDisplay:10.37,2013-02-13 15:32:00,
2013-02-13 10:37:00,41.8,30.1,29.82,North,5,1.1,3.5,63,0.00,BKN,,0.00,232.0,WeatherDisplay:10.37,2013-02-13 15:37:00,
2013-02-13 10:42:00,41.9,30.2,29.82,North,5,0.4,3.5,63,0.00,BKN,,0.00,234.0,WeatherDisplay:10.37,2013-02-13 15:42:00,
2013-02-13 10:47:00,42.2,30.9,29.81,North,5,0.1,1.1,64,0.00,BKN,,0.00,336.0,WeatherDisplay:10.37,2013-02-13 15:47:00,
2013-02-13 10:53:00,42.6,30.9,29.81,North,5,0.6,2.3,63,0.00,BKN,,0.00,250.0,WeatherDisplay:10.37,2013-02-13 15:53:00,
2013-02-13 10:58:00,42.9,30.8,29.81,North,5,0.4,3.5,62,0.00,BKN,,0.00,232.0,WeatherDisplay:10.37,2013-02-13 15:58:00,
2013-02-13 11:03:00,43.3,31.1,29.81,North,5,0.3,2.3,62,0.00,OVC,,0.00,206.0,WeatherDisplay:10.37,2013-02-13 16:03:00,
2013-02-13 11:08:00,43.5,31.3,29.81,North,5,5.7,10.4,62,0.00,OVC,,0.00,237.0,WeatherDisplay:10.37,2013-02-13 16:08:00,
2013-02-13 11:13:00,43.5,31.3,29.81,North,5,1.8,5.8,62,0.00,OVC,,0.00,239.0,WeatherDisplay:10.37,2013-02-13 16:13:00,
2013-02-13 11:18:00,43.6,31.8,29.80,North,5,0.0,1.1,63,0.00,OVC,,0.00,241.0,WeatherDisplay:10.37,2013-02-13 16:18:00,
2013-02-13 11:23:00,43.8,32.0,29.80,North,5,2.1,3.5,63,0.00,OVC,,0.00,255.0,WeatherDisplay:10.37,2013-02-13 16:23:00,
2013-02-13 11:28:00,43.9,32.1,29.80,North,5,0.4,2.3,63,0.00,OVC,,0.00,250.0,WeatherDisplay:10.37,2013-02-13 16:28:00,
2013-02-13 11:33:00,43.9,31.7,29.78,North,5,3.4,4.6,62,0.00,OVC,,0.00,169.0,WeatherDisplay:10.37,2013-02-13 16:33:00,
2013-02-13 11:38:00,43.9,31.7,29.78,North,5,1.3,5.0,62,0.00,OVC,,0.00,162.0,WeatherDisplay:10.37,2013-02-13 16:38:00,
2013-02-13 11:43:00,43.8,32.0,29.78,North,5,0.9,3.5,63,0.00,OVC,,0.00,236.0,WeatherDisplay:10.37,2013-02-13 16:43:00,
2013-02-13 11:48:00,43.8,32.0,29.78,North,5,1.9,4.6,63,0.00,OVC,,0.00,243.0,WeatherDisplay:10.37,2013-02-13 16:48:00,
2013-02-13 11:53:00,43.9,32.5,29.78,North,5,0.9,4.0,64,0.00,OVC,,0.00,258.0,WeatherDisplay:10.37,2013-02-13 16:53:00,
2013-02-13 11:58:00,43.9,32.5,29.78,North,5,2.6,5.0,64,0.00,OVC,,0.00,239.0,WeatherDisplay:10.37,2013-02-13 16:58:00,
2013-02-13 12:03:00,44.1,32.7,29.78,North,5,2.1,4.0,64,0.00,BKN,,0.00,234.0,WeatherDisplay:10.37,2013-02-13 17:03:00,
2013-02-13 12:08:00,44.1,32.7,29.78,North,5,1.2,3.5,64,0.00,BKN,,0.00,239.0,WeatherDisplay:10.37,2013-02-13 17:08:00,
2013-02-13 12:13:00,44.2,33.2,29.78,North,5,1.1,3.5,65,0.00,BKN,,0.00,223.0,WeatherDisplay:10.37,2013-02-13 17:13:00,
2013-02-13 12:18:00,44.2,32.8,29.76,North,5,0.6,2.3,64,0.00,BKN,,0.00,255.0,WeatherDisplay:10.37,2013-02-13 17:18:00,
2013-02-13 12:23:00,44.3,33.3,29.76,North,5,1.0,3.5,65,0.00,BKN,,0.00,267.0,WeatherDisplay:10.37,2013-02-13 17:23:00,
2013-02-13 12:28:00,44.3,33.3,29.76,North,5,4.7,5.8,65,0.00,BKN,,0.00,200.0,WeatherDisplay:10.37,2013-02-13 17:28:00,
2013-02-13 12:33:00,44.3,33.3,29.75,North,5,3.0,5.8,65,0.00,BKN,,0.00,267.0,WeatherDisplay:10.37,2013-02-13 17:33:00,
2013-02-13 12:38:00,44.3,33.3,29.75,North,5,0.5,2.3,65,0.00,BKN,,0.00,197.0,WeatherDisplay:10.37,2013-02-13 17:38:00,
2013-02-13 12:43:00,44.5,33.5,29.75,North,5,2.1,3.5,65,0.00,BKN,,0.00,225.0,WeatherDisplay:10.37,2013-02-13 17:43:00,
2013-02-13 12:48:00,44.5,33.5,29.74,North,5,1.6,3.5,65,0.00,BKN,,0.00,239.0,WeatherDisplay:10.37,2013-02-13 17:48:00,
2013-02-13 12:53:00,44.6,33.6,29.74,North,5,1.1,3.5,65,0.00,BKN,,0.00,283.0,WeatherDisplay:10.37,2013-02-13 17:53:00,
2013-02-13 12:58:00,44.6,33.6,29.74,North,5,2.2,4.6,65,0.00,BKN,,0.00,193.0,WeatherDisplay:10.37,2013-02-13 17:58:00,
2013-02-13 13:03:00,44.8,34.1,29.72,North,5,3.1,5.0,66,0.00,OVC,,0.00,167.0,WeatherDisplay:10.37,2013-02-13 18:03:00,
2013-02-13 13:08:00,44.8,34.1,29.72,North,5,0.4,3.0,66,0.00,OVC,,0.00,167.0,WeatherDisplay:10.37,2013-02-13 18:08:00,
2013-02-13 13:13:00,44.9,34.6,29.72,North,5,1.3,3.5,67,0.00,OVC,,0.00,274.0,WeatherDisplay:10.37,2013-02-13 18:13:00,
2013-02-13 13:18:00,45.1,34.8,29.70,North,5,0.7,2.3,67,0.00,OVC,,0.00,267.0,WeatherDisplay:10.37,2013-02-13 18:18:00,
2013-02-13 13:23:00,45.4,35.5,29.70,North,5,2.9,3.5,68,0.00,OVC,,0.00,230.0,WeatherDisplay:10.37,2013-02-13 18:23:00,
2013-02-13 13:28:00,45.5,35.2,29.70,North,5,0.3,4.6,67,0.00,OVC,,0.00,250.0,WeatherDisplay:10.37,2013-02-13 18:28:00,
2013-02-13 13:33:00,45.7,35.7,29.67,North,5,1.0,3.5,68,0.00,OVC,,0.00,214.0,WeatherDisplay:10.37,2013-02-13 18:33:00,
2013-02-13 13:38:00,45.7,35.7,29.67,North,5,0.1,1.0,68,0.00,OVC,,0.00,267.0,WeatherDisplay:10.37,2013-02-13 18:38:00,
2013-02-13 13:43:00,45.8,35.8,29.67,North,5,1.5,10.4,68,0.00,OVC,,0.00,192.0,WeatherDisplay:10.37,2013-02-13 18:43:00,
2013-02-13 13:48:00,45.8,36.6,29.67,North,5,0.5,3.5,70,0.00,OVC,,0.00,151.0,WeatherDisplay:10.37,2013-02-13 18:48:00,
2013-02-13 13:53:00,45.8,36.6,29.67,North,5,0.5,3.5,70,0.00,OVC,,0.00,141.0,WeatherDisplay:10.37,2013-02-13 18:53:00,
2013-02-13 13:58:00,45.7,36.5,29.67,North,5,1.4,4.0,70,0.00,OVC,,0.00,83.0,WeatherDisplay:10.37,2013-02-13 18:58:00,
2013-02-13 14:03:00,45.5,35.9,29.67,North,5,0.0,1.1,69,0.00,OVC,,0.00,86.0,WeatherDisplay:10.37,2013-02-13 19:03:00,
2013-02-13 14:08:00,45.4,35.5,29.67,North,5,1.8,4.6,68,0.00,OVC,,0.00,77.0,WeatherDisplay:10.37,2013-02-13 19:08:00,
2013-02-13 14:13:00,45.4,35.8,29.67,North,5,0.7,2.3,69,0.00,OVC,,0.00,77.0,WeatherDisplay:10.37,2013-02-13 19:13:00,
2013-02-13 14:18:00,45.2,36.0,29.67,North,5,0.0,3.5,70,0.00,OVC,,0.00,51.0,WeatherDisplay:10.37,2013-02-13 19:18:00,
2013-02-13 14:23:00,45.1,35.9,29.67,North,5,0.4,2.0,70,0.00,OVC,,0.00,56.0,WeatherDisplay:10.37,2013-02-13 19:23:00,
2013-02-13 14:28:00,44.9,35.7,29.67,North,5,0.0,0.0,70,0.00,OVC,,0.00,70.0,WeatherDisplay:10.37,2013-02-13 19:28:00,
2013-02-13 14:33:00,44.9,35.7,29.65,North,5,0.1,1.1,70,0.00,OVC,,0.00,54.0,WeatherDisplay:10.37,2013-02-13 19:33:00,
2013-02-13 14:38:00,44.8,35.6,29.65,North,5,0.4,2.3,70,0.00,OVC,,0.00,90.0,WeatherDisplay:10.37,2013-02-13 19:38:00,
2013-02-13 14:43:00,44.8,36.0,29.65,North,5,0.6,3.0,71,0.00,OVC,,0.00,107.0,WeatherDisplay:10.37,2013-02-13 19:43:00,
2013-02-13 14:48:00,44.8,36.0,29.64,North,5,0.6,3.5,71,0.00,OVC,,0.00,90.0,WeatherDisplay:10.37,2013-02-13 19:48:00,
2013-02-13 14:53:00,44.8,36.0,29.64,North,5,0.9,3.5,71,0.00,OVC,,0.00,83.0,WeatherDisplay:10.37,2013-02-13 19:53:00,
2013-02-13 14:58:00,44.8,36.0,29.64,North,5,0.1,2.3,71,0.00,OVC,,0.00,54.0,WeatherDisplay:10.37,2013-02-13 19:58:00,
2013-02-13 15:03:00,44.8,36.3,29.63,North,5,0.4,3.0,72,0.00,OVC,,0.00,60.0,WeatherDisplay:10.37,2013-02-13 20:03:00,
2013-02-13 15:08:00,44.8,36.3,29.63,North,5,0.9,3.5,72,0.00,OVC,,0.00,70.0,WeatherDisplay:10.37,2013-02-13 20:08:00,
2013-02-13 15:13:00,44.8,36.3,29.63,North,5,0.3,4.6,72,0.00,OVC,,0.00,104.0,WeatherDisplay:10.37,2013-02-13 20:13:00,
2013-02-13 15:18:00,44.9,36.8,29.62,North,5,0.1,3.5,73,0.00,OVC,,0.00,67.0,WeatherDisplay:10.37,2013-02-13 20:18:00,
2013-02-13 15:23:00,44.8,36.3,29.62,North,5,1.9,3.5,72,0.00,OVC,,0.00,49.0,WeatherDisplay:10.37,2013-02-13 20:23:00,
2013-02-13 15:28:00,44.8,36.3,29.62,North,5,0.0,0.0,72,0.00,OVC,,0.00,54.0,WeatherDisplay:10.37,2013-02-13 20:28:00,
2013-02-13 15:33:00,44.6,36.1,29.63,North,5,0.2,3.5,72,0.00,OVC,,0.00,63.0,WeatherDisplay:10.37,2013-02-13 20:33:00,
2013-02-13 15:38:00,44.6,35.8,29.63,North,5,0.6,2.3,71,0.00,OVC,,0.00,40.0,WeatherDisplay:10.37,2013-02-13 20:38:00,
2013-02-13 15:43:00,44.5,35.7,29.63,North,5,0.4,2.3,71,0.00,OVC,,0.00,33.0,WeatherDisplay:10.37,2013-02-13 20:43:00,
2013-02-13 15:48:00,44.5,35.7,29.63,North,5,0.3,3.5,71,0.00,OVC,,0.00,60.0,WeatherDisplay:10.37,2013-02-13 20:48:00,
2013-02-13 15:53:00,44.5,36.0,29.63,North,5,0.4,2.3,72,0.00,OVC,,0.00,42.0,WeatherDisplay:10.37,2013-02-13 20:53:00,
2013-02-13 15:58:00,44.3,36.2,29.63,North,5,0.9,3.0,73,0.00,OVC,,0.00,42.0,WeatherDisplay:10.37,2013-02-13 20:58:00,
2013-02-13 16:03:00,44.2,36.4,29.62,North,5,0.1,1.1,74,0.00,-RA,,0.00,47.0,WeatherDisplay:10.37,2013-02-13 21:03:00,
2013-02-13 16:08:00,44.1,36.7,29.62,North,5,0.0,0.0,75,0.00,-RA,,0.00,32.0,WeatherDisplay:10.37,2013-02-13 21:08:00,
2013-02-13 16:13:00,43.8,36.7,29.62,North,5,1.1,3.5,76,0.00,-RA,,0.00,30.0,WeatherDisplay:10.37,2013-02-13 21:13:00,
2013-02-13 16:18:00,43.6,36.9,29.62,North,5,0.0,1.1,77,0.00,-RA,,0.00,32.0,WeatherDisplay:10.37,2013-02-13 21:18:00,
2013-02-13 16:23:00,43.3,36.9,29.62,North,5,0.0,0.0,78,0.00,-RA,,0.00,19.0,WeatherDisplay:10.37,2013-02-13 21:23:00,
2013-02-13 16:28:00,43.2,37.1,29.62,North,5,0.0,0.0,79,0.00,-RA,,0.00,23.0,WeatherDisplay:10.37,2013-02-13 21:28:00,
2013-02-13 16:33:00,43.1,37.0,29.62,North,5,0.0,0.0,79,0.00,-RA,,0.00,11.0,WeatherDisplay:10.37,2013-02-13 21:33:00,
2013-02-13 16:38:00,42.9,37.2,29.62,North,5,0.0,1.1,80,0.00,-RA,,0.00,19.0,WeatherDisplay:10.37,2013-02-13 21:38:00,
2013-02-13 16:43:00,42.8,37.1,29.62,North,5,0.0,0.0,80,0.00,-RA,,0.00,21.0,WeatherDisplay:10.37,2013-02-13 21:43:00,
2013-02-13 16:48:00,42.5,36.8,29.62,North,5,0.0,1.0,80,0.00,-RA,,0.00,40.0,WeatherDisplay:10.37,2013-02-13 21:48:00,
2013-02-13 16:53:00,42.3,36.9,29.62,North,5,0.0,0.0,81,0.01,-RA,,0.01,21.0,WeatherDisplay:10.37,2013-02-13 21:53:00,
2013-02-13 16:58:00,42.2,37.1,29.62,North,5,0.0,0.0,82,0.01,-RA,,0.01,7.0,WeatherDisplay:10.37,2013-02-13 21:58:00,
2013-02-13 17:03:00,42.1,37.3,29.63,North,5,0.0,0.0,83,0.01,OVC,,0.01,16.0,WeatherDisplay:10.37,2013-02-13 22:03:00,
2013-02-13 17:08:00,41.9,37.1,29.63,North,9,0.0,1.1,83,0.01,OVC,,0.02,11.0,WeatherDisplay:10.37,2013-02-13 22:08:00,
2013-02-13 17:13:00,41.8,37.3,29.63,North,5,0.0,0.0,84,0.02,RA,,0.02,7.0,WeatherDisplay:10.37,2013-02-13 22:13:00,
2013-02-13 17:18:00,41.6,37.1,29.63,North,5,0.0,0.0,84,0.03,RA,,0.03,5.0,WeatherDisplay:10.37,2013-02-13 22:18:00,
2013-02-13 17:23:00,41.5,37.0,29.63,North,5,0.0,0.0,84,0.03,RA,,0.04,11.0,WeatherDisplay:10.37,2013-02-13 22:23:00,
2013-02-13 17:28:00,41.5,37.3,29.63,North,9,0.0,1.1,85,0.05,RA,,0.05,7.0,WeatherDisplay:10.37,2013-02-13 22:28:00,
2013-02-13 17:33:00,41.3,37.1,29.63,North,5,0.0,0.0,85,0.05,RA,,0.05,5.0,WeatherDisplay:10.37,2013-02-13 22:33:00,
2013-02-13 17:38:00,41.2,37.0,29.63,North,5,1.2,3.5,85,0.05,OVC,,0.05,0.0,WeatherDisplay:10.37,2013-02-13 22:38:00,
2013-02-13 17:43:00,41.2,37.3,29.63,North,5,0.0,0.0,86,0.07,RA,,0.07,0.0,WeatherDisplay:10.37,2013-02-13 22:43:00,
2013-02-13 17:48:00,41.1,37.2,29.62,North,5,0.0,0.0,86,0.07,RA,,0.07,0.0,WeatherDisplay:10.37,2013-02-13 22:48:00,
2013-02-13 17:53:00,40.9,37.0,29.62,North,5,0.1,1.1,86,0.05,OVC,,0.07,0.0,WeatherDisplay:10.37,2013-02-13 22:53:00,
2013-02-13 17:58:00,40.9,37.3,29.62,North,5,0.0,1.1,87,0.05,OVC,,0.07,0.0,WeatherDisplay:10.37,2013-02-13 22:58:00,
2013-02-13 18:03:00,40.8,37.2,29.62,North,5,0.0,0.0,87,0.05,-RA,,0.07,0.0,WeatherDisplay:10.37,2013-02-13 23:03:00,
2013-02-13 18:08:00,40.8,37.2,29.62,North,5,0.0,0.0,87,0.07,-RA,,0.08,0.0,WeatherDisplay:10.37,2013-02-13 23:08:00,
2013-02-13 18:13:00,40.6,37.3,29.62,North,5,2.0,3.5,88,0.05,-RA,,0.08,0.0,WeatherDisplay:10.37,2013-02-13 23:13:00,
2013-02-13 18:18:00,40.6,37.3,29.61,North,360,1.9,3.5,88,0.04,-RA,,0.08,0.0,WeatherDisplay:10.37,2013-02-13 23:18:00,
2013-02-13 18:23:00,40.5,37.2,29.61,North,5,0.3,3.5,88,0.04,-RA,,0.08,0.0,WeatherDisplay:10.37,2013-02-13 23:23:00,
2013-02-13 18:28:00,40.3,37.0,29.61,North,5,0.0,2.3,88,0.02,-RA,,0.08,0.0,WeatherDisplay:10.37,2013-02-13 23:28:00,
2013-02-13 18:33:00,40.3,37.0,29.62,North,5,2.0,3.5,88,0.02,-RA,,0.08,0.0,WeatherDisplay:10.37,2013-02-13 23:33:00,
2013-02-13 18:38:00,40.2,36.9,29.62,North,5,2.6,3.5,88,0.02,-RA,,0.08,0.0,WeatherDisplay:10.37,2013-02-13 23:38:00,
2013-02-13 18:43:00,40.1,36.8,29.62,North,5,0.7,4.6,88,0.01,-RA,,0.08,0.0,WeatherDisplay:10.37,2013-02-13 23:43:00,
2013-02-13 18:48:00,39.9,36.9,29.62,North,5,0.0,0.0,89,0.02,-RA,,0.09,0.0,WeatherDisplay:10.37,2013-02-13 23:48:00,
2013-02-13 18:53:00,39.8,36.8,29.62,North,5,0.0,1.0,89,0.02,-RA,,0.09,0.0,WeatherDisplay:10.37,2013-02-13 23:53:00,
2013-02-13 18:58:00,39.8,36.8,29.62,North,5,1.0,3.5,89,0.02,-RA,,0.09,0.0,WeatherDisplay:10.37,2013-02-13 23:58:00,
2013-02-13 19:03:00,39.6,36.6,29.62,North,5,0.3,3.5,89,0.02,-RA,,0.09,0.0,WeatherDisplay:10.37,2013-02-14 00:03:00,
2013-02-13 19:08:00,39.5,36.5,29.62,North,5,0.0,0.0,89,0.01,-RA,,0.09,0.0,WeatherDisplay:10.37,2013-02-14 00:08:00,
2013-02-13 19:13:00,39.5,36.5,29.62,North,5,2.0,4.0,89,0.01,-RA,,0.09,0.0,WeatherDisplay:10.37,2013-02-14 00:13:00,
2013-02-13 19:18:00,39.5,36.8,29.63,North,5,0.7,3.5,90,0.01,-RA,,0.09,0.0,WeatherDisplay:10.37,2013-02-14 00:18:00,
2013-02-13 19:23:00,39.3,36.6,29.63,North,5,0.0,2.3,90,0.02,-RA,,0.10,0.0,WeatherDisplay:10.37,2013-02-14 00:23:00,
2013-02-13 19:28:00,39.3,36.6,29.63,North,5,1.3,2.3,90,0.02,-RA,,0.10,0.0,WeatherDisplay:10.37,2013-02-14 00:28:00,
2013-02-13 19:33:00,39.2,36.5,29.63,North,360,3.5,5.8,90,0.02,-RA,,0.10,0.0,WeatherDisplay:10.37,2013-02-14 00:33:00,
2013-02-13 19:38:00,39.2,36.5,29.63,North,360,0.4,2.3,90,0.03,-RA,,0.11,0.0,WeatherDisplay:10.37,2013-02-14 00:38:00,
2013-02-13 19:43:00,39.2,36.5,29.63,North,5,0.1,3.5,90,0.03,-RA,,0.11,0.0,WeatherDisplay:10.37,2013-02-14 00:43:00,
2013-02-13 19:48:00,39.1,36.7,29.63,North,5,0.2,1.1,91,0.02,-RA,,0.11,0.0,WeatherDisplay:10.37,2013-02-14 00:48:00,
2013-02-13 19:53:00,39.1,36.7,29.63,North,5,0.0,1.1,91,0.02,-RA,,0.11,0.0,WeatherDisplay:10.37,2013-02-14 00:53:00,
2013-02-13 19:58:00,39.1,36.7,29.63,North,9,2.8,3.5,91,0.02,-RA,,0.11,0.0,WeatherDisplay:10.37,2013-02-14 00:58:00,
2013-02-13 20:03:00,39.1,36.7,29.64,North,9,0.0,0.0,91,0.02,-RA,,0.11,0.0,WeatherDisplay:10.37,2013-02-14 01:03:00,
2013-02-13 20:08:00,38.9,36.5,29.64,North,5,0.0,1.1,91,0.02,-RA,,0.11,0.0,WeatherDisplay:10.37,2013-02-14 01:08:00,
2013-02-13 20:13:00,38.9,36.5,29.64,North,5,0.8,2.3,91,0.02,-RA,,0.11,0.0,WeatherDisplay:10.37,2013-02-14 01:13:00,
2013-02-13 20:18:00,38.9,36.5,29.64,North,5,0.1,1.1,91,0.02,-RA,,0.11,0.0,WeatherDisplay:10.37,2013-02-14 01:18:00,
2013-02-13 20:23:00,38.9,36.5,29.64,North,5,0.3,2.3,91,0.01,-RA,,0.12,0.0,WeatherDisplay:10.37,2013-02-14 01:23:00,
2013-02-13 20:28:00,38.9,36.5,29.64,North,360,0.9,4.6,91,0.02,-RA,,0.12,0.0,WeatherDisplay:10.37,2013-02-14 01:28:00,
2013-02-13 20:33:00,38.8,36.7,29.64,North,9,0.6,2.0,92,0.02,-RA,,0.12,0.0,WeatherDisplay:10.37,2013-02-14 01:33:00,
2013-02-13 20:38:00,38.8,36.7,29.64,North,9,0.2,2.3,92,0.01,-RA,,0.12,0.0,WeatherDisplay:10.37,2013-02-14 01:38:00,
2013-02-13 20:43:00,38.8,36.7,29.64,North,5,0.5,2.0,92,0.01,-RA,,0.12,0.0,WeatherDisplay:10.37,2013-02-14 01:43:00,
2013-02-13 20:48:00,38.6,36.5,29.64,North,5,1.2,2.3,92,0.01,-RA,,0.12,0.0,WeatherDisplay:10.37,2013-02-14 01:48:00,
2013-02-13 20:53:00,38.6,36.5,29.64,North,5,0.2,1.1,92,0.01,-RA,,0.12,0.0,WeatherDisplay:10.37,2013-02-14 01:53:00,
2013-02-13 20:58:00,38.5,36.4,29.64,North,5,0.5,3.5,92,0.01,-RA,,0.12,0.0,WeatherDisplay:10.37,2013-02-14 01:58:00,
2013-02-13 21:03:00,38.5,36.4,29.65,North,5,1.1,2.3,92,0.01,-RA,,0.12,0.0,WeatherDisplay:10.37,2013-02-14 02:03:00,
2013-02-13 21:08:00,38.3,36.2,29.65,North,5,1.7,4.0,92,0.01,-RA,,0.12,0.0,WeatherDisplay:10.37,2013-02-14 02:08:00,
2013-02-13 21:13:00,38.3,36.2,29.65,North,5,2.7,4.6,92,0.01,-RA,,0.12,0.0,WeatherDisplay:10.37,2013-02-14 02:13:00,
2013-02-13 21:18:00,38.2,36.1,29.66,North,5,0.9,3.5,92,0.01,-RA,,0.12,0.0,WeatherDisplay:10.37,2013-02-14 02:18:00,
2013-02-13 21:23:00,38.0,35.9,29.66,North,5,0.8,3.5,92,0.01,-RA,,0.12,0.0,WeatherDisplay:10.37,2013-02-14 02:23:00,
2013-02-13 21:28:00,37.9,35.8,29.66,North,5,0.1,1.1,92,0.00,-RA,,0.12,0.0,WeatherDisplay:10.37,2013-02-14 02:28:00,
2013-02-13 21:33:00,37.9,35.8,29.67,North,5,2.2,3.5,92,0.00,-RA,,0.12,0.0,WeatherDisplay:10.37,2013-02-14 02:33:00,
2013-02-13 21:38:00,37.8,35.7,29.67,North,5,1.2,3.5,92,0.00,-RA,,0.12,0.0,WeatherDisplay:10.37,2013-02-14 02:38:00,
2013-02-13 21:43:00,37.8,35.7,29.67,North,5,0.9,2.0,92,0.01,-RA,,0.13,0.0,WeatherDisplay:10.37,2013-02-14 02:43:00,
2013-02-13 21:48:00,37.6,35.5,29.67,North,5,3.5,7.0,92,0.01,-RA,,0.13,0.0,WeatherDisplay:10.37,2013-02-14 02:48:00,
2013-02-13 21:53:00,37.5,35.4,29.67,North,5,2.0,4.6,92,0.01,-RA,,0.13,0.0,WeatherDisplay:10.37,2013-02-14 02:53:00,
2013-02-13 21:58:00,37.3,35.2,29.67,North,5,0.1,1.1,92,0.01,-RA,,0.13,0.0,WeatherDisplay:10.37,2013-02-14 02:58:00,
2013-02-13 22:03:00,37.3,35.2,29.68,North,9,2.5,3.5,92,0.01,-RA,,0.14,0.0,WeatherDisplay:10.37,2013-02-14 03:03:00,
2013-02-13 22:08:00,37.2,35.1,29.68,North,9,0.8,3.5,92,0.02,-RA,,0.14,0.0,WeatherDisplay:10.37,2013-02-14 03:08:00,
2013-02-13 22:13:00,37.2,35.1,29.68,North,5,0.7,2.3,92,0.02,-RA,,0.14,0.0,WeatherDisplay:10.37,2013-02-14 03:13:00,
2013-02-13 22:18:00,37.0,34.9,29.69,North,5,0.0,2.3,92,0.02,-RA,,0.14,0.0,WeatherDisplay:10.37,2013-02-14 03:18:00,
2013-02-13 22:23:00,36.9,34.8,29.69,North,5,0.1,1.0,92,0.02,-RA,,0.14,0.0,WeatherDisplay:10.37,2013-02-14 03:23:00,
2013-02-13 22:28:00,36.9,34.8,29.69,North,5,1.4,4.6,92,0.02,-RA,,0.14,0.0,WeatherDisplay:10.37,2013-02-14 03:28:00,
2013-02-13 22:33:00,36.8,34.7,29.69,North,5,1.4,3.5,92,0.02,-RA,,0.14,0.0,WeatherDisplay:10.37,2013-02-14 03:33:00,
2013-02-13 22:38:00,36.8,34.7,29.69,North,5,0.4,3.5,92,0.02,-RA,,0.14,0.0,WeatherDisplay:10.37,2013-02-14 03:38:00,
2013-02-13 22:43:00,36.6,34.5,29.69,North,5,1.4,4.0,92,0.01,-RA,,0.14,0.0,WeatherDisplay:10.37,2013-02-14 03:43:00,
2013-02-13 22:48:00,36.6,34.5,29.70,North,5,0.6,3.5,92,0.01,-RA,,0.14,0.0,WeatherDisplay:10.37,2013-02-14 03:48:00,
2013-02-13 22:53:00,36.5,34.4,29.70,North,5,2.1,4.0,92,0.01,-RA,,0.14,0.0,WeatherDisplay:10.37,2013-02-14 03:53:00,
2013-02-13 22:58:00,36.5,34.4,29.70,North,5,4.3,6.9,92,0.01,-RA,,0.14,0.0,WeatherDisplay:10.37,2013-02-14 03:58:00,
2013-02-13 23:03:00,36.3,34.2,29.72,North,5,2.1,5.8,92,0.01,OVC,,0.14,0.0,WeatherDisplay:10.37,2013-02-14 04:03:00,
2013-02-13 23:08:00,36.2,34.1,29.72,North,5,0.1,3.5,92,0.00,OVC,,0.14,0.0,WeatherDisplay:10.37,2013-02-14 04:08:00,
2013-02-13 23:13:00,36.2,34.1,29.72,North,5,2.0,4.6,92,0.00,OVC,,0.14,0.0,WeatherDisplay:10.37,2013-02-14 04:13:00,
2013-02-13 23:18:00,36.0,33.9,29.72,North,5,0.1,0.0,92,0.00,OVC,,0.14,0.0,WeatherDisplay:10.37,2013-02-14 04:18:00,
2013-02-13 23:23:00,36.0,33.9,29.72,North,5,0.6,3.5,92,0.00,OVC,,0.14,0.0,WeatherDisplay:10.37,2013-02-14 04:23:00,
2013-02-13 23:28:00,36.0,33.9,29.72,North,5,0.6,3.5,92,0.00,OVC,,0.14,0.0,WeatherDisplay:10.37,2013-02-14 04:28:00,
2013-02-13 23:33:00,35.9,33.8,29.72,North,5,4.2,10.4,92,0.00,OVC,,0.14,0.0,WeatherDisplay:10.37,2013-02-14 04:33:00,
2013-02-13 23:38:00,35.9,33.8,29.72,North,5,2.3,8.1,92,0.00,OVC,,0.14,0.0,WeatherDisplay:10.37,2013-02-14 04:38:00,
2013-02-13 23:43:00,35.9,33.8,29.72,North,5,1.2,3.5,92,0.00,OVC,,0.14,0.0,WeatherDisplay:10.37,2013-02-14 04:43:00,
2013-02-13 23:48:00,35.8,33.7,29.72,North,9,0.6,3.5,92,0.00,OVC,,0.14,0.0,WeatherDisplay:10.37,2013-02-14 04:48:00,
2013-02-13 23:53:00,35.8,33.7,29.72,North,5,0.1,0.0,92,0.00,OVC,,0.14,0.0,WeatherDisplay:10.37,2013-02-14 04:53:00,
2013-02-13 23:58:00,35.8,33.7,29.72,North,5,0.7,4.0,92,0.00,OVC,,0.14,0.0,WeatherDisplay:10.37,2013-02-14 04:58:00,